Regional Weather Roundup
Issued by NWS

Home | Current Version | Previous Version | Graphics & Text | Print | Product List | Glossary On
Versions: 1 2 3 4 5 6 7 8 9 10 11 12 13 14 15 16 17 18 19 20 21 22 23 24 25 26 27 28 29 30 31 32 33 34 35 36 37 38 39 40 41 42 43 44 45 46 47 48 49 50
000
ASUS43 KLOT 041113
RWRIL

ILLINOIS REGIONAL WEATHER ROUNDUP
NATIONAL WEATHER SERVICE CHICAGO/ROMEOVILLE IL
600 AM CDT FRI SEP 04 2015

NOTE: "FAIR" INDICATES FEW OR NO CLOUDS BELOW 12,000 FEET WITH NO
SIGNIFICANT WEATHER AND/OR OBSTRUCTIONS TO VISIBILITY.

* THESE STATIONS ARE NOT UNDER NWS QUALITY CONTROL. THEY ALSO MAY NOT
  REPORT WEATHER SUCH AS PRECIPITATION OR FOG.

ILZ001-002-007-009-015-016-024-041200-
NORTHWEST ILLINOIS

CITY           SKY/WX    TMP DP  RH WIND       PRES   REMARKS
MOLINE         CLEAR     69  66  90 CALM      29.96R
STERLING*      CLEAR     66  66 100 E3        29.96R
SAVANNA*       CLEAR     68  65  91 E3        29.97R
$$

ILZ003-004-008-010-011-017-018-041200-
NORTH CENTRAL ILLINOIS

CITY           SKY/WX    TMP DP  RH WIND       PRES   REMARKS
ROCKFORD       PTCLDY    68  65  90 E3        30.00R
FREEPORT*      PTCLDY    65  64  97 E3        30.00S FOG
ROCHELLE*      CLEAR     65  65  97 CALM      29.99S FOG
DE KALB*       CLEAR     65  64  97 CALM      30.00R FOG
PERU*          CLEAR     69  67  94 E3        29.98S FOG
$$

ILZ005-006-012>014-019>023-041200-
NORTHEAST ILLINOIS

CITY           SKY/WX    TMP DP  RH WIND       PRES   REMARKS
CHICAGO-OHARE  PTCLDY    69  66  90 CALM      29.98R
CHICAGO-MIDWAY PTCLDY    73  66  78 N3        29.98R
AURORA         CLEAR     65  63  93 CALM      29.99S FOG
LANSING*       CLEAR     66  65  97 CALM      29.99R
JOLIET*        CLEAR     67  67  98 CALM      29.99R FOG
WAUKEGAN       PTCLDY    66  65  96 CALM      29.98R
DUPAGE AIRPORT CLEAR     66  64  93 CALM      29.98R
KANKAKEE*      MOCLDY    67  66  98 CALM      29.99S FOG
WHEELING       CLEAR     67  65  93 CALM      30.00R
MORRIS*        CLEAR     67  66  96 CALM      29.98R FOG
ROMEOVILLE*    CLEAR     67  67  99 CALM      29.99S FOG
NORTHERLY ISL    N/A     69  66  90 CALM        N/A
$$

LMZ740>746-041200-
SOUTHERN LAKE MICHIGAN

STATION/POSITION SKY/WX   TEMP    WIND        PRES    VSBY  WAVE
                          AIR SEA DIR/SP/G                  HT/PER
                          (F)     (DEG/KT/KT) (MB)    (MI)  (FT/S)
SOUTHERN BUOY              66 71  350/ 10/ 12 1014.6R         1/ 4
WILMETTE HARBOR            68 70  180/  6/ 10   N/A           1/ 2
HARRISON CRIB              69     340/  6/  7   N/A
BURNHAM HARBOR             69      40/  2/  3   N/A
CALUMET HARBOR             69      CALM  /  2   N/A
BURNS HARBOR               72      10/  4/  7 1015.2S
MICHIGAN CITY              70     330/  7/  8   N/A
MICHIGAN CITY 6N           71 73   40/  4/  6   N/A           2/ 4
ST. JOSEPH                 71 73   50/  6/ 10   N/A           1/ 4
$$

ILZ025>027-034>036-040-047-049-050-058-095>099-041200-
WEST-CENTRAL ILLINOIS

CITY           SKY/WX    TMP DP  RH WIND       PRES   REMARKS
QUINCY         CLEAR     71  68  90 S6        29.98R
GALESBURG*     CLEAR     67  66  98 S3        29.97S
MACOMB*        CLEAR     66  65  97 CALM      29.99S
JACKSONVILLE*  CLEAR     74  69  86 SW6       29.98R
PITTSFIELD*    CLEAR     72  68  88 CALM      29.99S
$$

ILZ028>032-037-038-041>044-048-051>054-059>061-041200-
CENTRAL ILLINOIS

CITY           SKY/WX    TMP DP  RH WIND       PRES   REMARKS
PONTIAC        CLEAR     68  68 100 SE3       29.99S FOG
BLOOMINGTON    CLEAR     70  68  93 SW6       30.00R
DECATUR        CLEAR     71  66  84 CALM      29.99S
PEORIA         CLEAR     74  67  78 CALM      29.97S
LACON*         CLEAR     68  67  95 CALM      29.97R
LINCOLN*       CLEAR     68  64  87 CALM      29.98R
SPRINGFIELD    CLEAR     70  66  87 CALM      29.98S
TAYLORVILLE    CLEAR     68  66  94 CALM      30.00R
$$

ILZ033-039-045-046-055>057-062-063-041200-
EAST-CENTRAL ILLINOIS

CITY           SKY/WX    TMP DP  RH WIND       PRES   REMARKS
CHAMPAIGN      CLEAR     68  66  93 SW3       30.00R FOG
RANTOUL*       CLEAR     72  67  84 CALM      30.00R
MATTOON          N/A     74  67  78 SW7       29.99R
PARIS*         CLEAR     69  67  93 CALM      30.01R
$$

ILZ079-100>102-041200-
SOUTHWEST ILLINOIS

CITY           SKY/WX    TMP DP  RH WIND       PRES   REMARKS
ALTON          CLEAR     66  66  98 CALM      30.00R FOG
BELLEVILLE     CLEAR     70  70 100 CALM      29.98S
CAHOKIA*       CLEAR     70  68  93 CALM      29.99R FOG
SPARTA*        CLEAR     69  68  96 CALM      30.01R
$$

ILZ064>066-069>071-074>076-080>082-084>086-088>090-092>094-041200-
SOUTH-CENTRAL ILLINOIS

CITY           SKY/WX    TMP DP  RH WIND       PRES   REMARKS
CARBONDALE     FOG       67  66  97 CALM      30.00S VSB 1/4
CAIRO*           N/A     65  65 100 CALM      30.00R FOG
EFFINGHAM*     CLEAR     67  65  91 CALM      30.02R FOG
MARION         CLEAR     70  68  94 CALM      30.01R FOG
MT. VERNON     CLEAR     66  61  82 CALM      30.01S
CENTRALIA*     CLEAR     69  68  99 CALM      30.00R
SALEM*         CLEAR     68  66  93 CALM      30.00S FOG
METROPOLIS*    FOG       66  66 100 CALM      30.01R VSB 3/4
$$

ILZ067-068-072-073-078-083-087-091-041200-
SOUTHEAST ILLINOIS

CITY           SKY/WX    TMP DP  RH WIND       PRES   REMARKS
LAWRENCEVILLE  CLEAR     69  67  93 CALM      30.01R
FLORA*         CLEAR     66  65  94 CALM      30.01R
FAIRFIELD*     CLEAR     67  67  99 CALM      30.00R FOG
HARRISBURG*    MOCLDY    65  65  99 CALM      30.01R FOG
ROBINSON*      PTCLDY    66  65  97 CALM      30.01S FOG
CARMI*         CLEAR     65  65 100 CALM      30.00R
$$

ABBREVIATIONS USED IN REMARKS
   TC - TEMPERATURE IN CELSIUS
  WCI - WIND CHILL INDEX
   HX - HEAT INDEX
  VSB - VISIBILITY
$$



USA.gov is the U.S. government's official web portal to all federal, state and local government web resources and services.